Flag for U.S.A. Weather past 2 weeks in Yonkers, New York, U.S.A.

Now
83 °F

Sunny.


Feels Like: 81 °F
Forecast: 61 / 78 °F
Wind: 7 mph from North

Location: Teterboro Airport

Current Time: Jul 30, 2014 at 4:17:30 PM

Latest Report: Jul 30, 2014 at 3:51 PM


Visibility: 10 mi

Pressure: 29.98 "Hg

Humidity: 32%

Dew point: 50 °F

Location of YonkersLocation

Historic Weather in Yonkers — Graph

°F

Yonkers temperature yesterday

Maximum temperature yesterday: 78 °F (at 5:51 PM)
Minimum temperature yesterday: 64 °F (at 5:51 AM)
Average temperature yesterday: 71 °F

Past Weeks' High & Low Weather Summary

 TemperatureHumidityPressure
High96 °F (Jul 23, 4:51 PM)89% (Jul 16, 1:58 AM)30.24 "Hg (Jul 16, 1:58 AM)
Low62 °F (Jul 30, 4:51 AM)28% (Jul 18, 3:51 PM)29.50 "Hg (Jul 28, 1:51 PM)
Average76 °F58%29.95 "Hg
* Reported Jul 15 2:51 PM — Jul 30 2:51 PM, Yonkers, Weather by CustomWeather, © 2014

Note: Actual official high and low records may vary slightly from our data, if they occured in-between our weather recording intervals... More about our weather records

Advertising

Yonkers weather history for previous 24 hours

 ConditionsComfort  
Time TempWeatherWind HumidityBarometerVisibility
2:51 PM
Jul 30
82 °FPartly sunny.7 mph31%29.98 "Hg10 mi
1:51 PM80 °FPartly sunny.7 mph31%29.99 "Hg10 mi
12:51 PM81 °FPassing clouds.8 mph28%30.00 "Hg10 mi
11:51 AM79 °FSunny.6 mph35%30.01 "Hg10 mi
10:51 AM77 °FSunny.6 mph40%30.02 "Hg10 mi
9:51 AM74 °FSunny.5 mph48%30.02 "Hg10 mi
8:51 AM70 °FSunny.6 mph57%30.03 "Hg10 mi
7:51 AM66 °FSunny.3 mph63%30.02 "Hg10 mi
6:51 AM63 °FSunny.3 mph73%30.01 "Hg10 mi
5:51 AM63 °FPassing clouds.No wind70%29.99 "Hg10 mi
4:51 AM62 °FPassing clouds.No wind75%29.98 "Hg10 mi
3:51 AM64 °FClear.No wind68%29.96 "Hg10 mi
2:51 AM65 °FOvercast.No wind63%29.96 "Hg10 mi
1:51 AM65 °FPassing clouds.No wind63%29.97 "Hg10 mi
12:51 AM66 °FClear.No wind61%29.97 "Hg10 mi
11:51 PM
Jul 29
65 °FClear.No wind63%29.97 "Hg7 mi
10:51 PM69 °FClear.No wind55%29.96 "Hg10 mi
9:51 PM70 °FOvercast.6 mph53%29.95 "Hg10 mi
8:51 PM71 °FPassing clouds.6 mph47%29.93 "Hg10 mi
7:51 PM73 °FOvercast.6 mph43%29.93 "Hg10 mi
6:51 PM75 °FPassing clouds.8 mph40%29.92 "Hg10 mi
5:51 PM78 °FPartly sunny.9 mph35%29.90 "Hg10 mi
4:51 PM76 °FPartly sunny.7 mph39%29.88 "Hg10 mi
Weather by CustomWeather, © 2014

See weather overviewHow to use our weather pages